This is the latest recevied weather packets stored in our database for station/object I1SXT-13. If no packets are shown the sender has not sent any weather packets the latest 10 day(s).
| Time | Temp. | Humidity | Pressure | Rain* | Wind** | Luminosity | Snow |
|---|---|---|---|---|---|---|---|
| 1777562066 | 23.33° C | 38% | 1020.9 hPa | 0 mm | - | - | - |
| 1777561769 | 23.33° C | 39% | 1020.8 hPa | 0 mm | - | - | - |
| 1777561465 | 23.89° C | 37% | 1020.9 hPa | 0 mm | - | - | - |
| 1777561168 | 23.89° C | 37% | 1020.9 hPa | 0 mm | - | - | - |
| 1777560864 | 24.44° C | 37% | 1020.3 hPa | 0 mm | - | - | - |
| 1777560567 | 25° C | 36% | 1020.6 hPa | 0 mm | - | - | - |
| 1777560269 | 25° C | 35% | 1020 hPa | 0 mm | - | - | - |
| 1777559966 | 25° C | 36% | 1020.9 hPa | 0 mm | - | - | - |
| 1777559668 | 25.56° C | 38% | 1020.9 hPa | 0 mm | - | - | - |
| 1777559364 | 25.56° C | 35% | 1020.9 hPa | 0 mm | - | - | - |
| 1777559067 | 25.56° C | 36% | 1020.4 hPa | 0 mm | - | - | - |
| 1777558770 | 25° C | 35% | 1020.4 hPa | 0 mm | - | - | - |
| 1777558466 | 24.44° C | 37% | 1020.3 hPa | 0 mm | - | - | - |
| 1777558169 | 24.44° C | 34% | 1019.8 hPa | 0 mm | - | - | - |
| 1777557865 | 25° C | 37% | 1020.9 hPa | 0 mm | - | - | - |
| 1777557568 | 25° C | 36% | 1020.3 hPa | 0 mm | - | - | - |
| 1777556967 | 25.56° C | 34% | 1021.3 hPa | 0 mm | - | - | - |
| 1777556366 | 25.56° C | 36% | 1021 hPa | 0 mm | - | - | - |
| 1777556069 | 25.56° C | 35% | 1021.4 hPa | 0 mm | - | - | - |
| 1777555765 | 26.11° C | 36% | 1021.1 hPa | 0 mm | - | - | - |
| 1777555468 | 25.56° C | 37% | 1020.9 hPa | 0 mm | - | - | - |
| 1777554867 | 26.11° C | 40% | 1020.8 hPa | 0 mm | - | - | - |
| 1777554570 | 25.56° C | 36% | 1021.5 hPa | 0 mm | - | - | - |
| 1777554266 | 25° C | 36% | 1021.9 hPa | 0 mm | - | - | - |
| 1777553969 | 25° C | 42% | 1021.7 hPa | 0 mm | - | - | - |
* Rain since midnight (hover to see other rain measurements)
** Current wind speed in m/s (hover to see current wind gust speed)